Weather in Blagoveshchenskoye

Russia / Kurgan Oblast     55°24′36″N   63°19′34″E
temp.,
°C
wind,
m/s
gust,
m/s
humid.,
%
clouds,
%
prec.,
mm/h
press.,
hPa
HPBL,
m
8 august, mon
mon823:00+20ne367498 0.0 1017128
02:00+17nne228659 0.0 101819
05:00+16nne229074 0.0 101825
08:00+21ne237395 0.0 1019228
11:00+25ne3553100 0.0 10181267
14:00+27ne3542100 0.0 10182025
17:00+27nne4545100 0.0 10171975
20:00+22ene366870 0.0 101791
9 august, tue
tue923:00+19e337382 0.0 101835
02:00+17wsw11808 0.0 101811
05:00+16nnw33805 0.0 101830
08:00+21n466962 0.0 1018254
11:00+26nne57535 0.0 10181380
14:00+28ne574299 0.0 10172546
17:00+27ene254874 0.0 1016911
20:00+23e226230 0.0 101711
10 august, wed
wed1023:00+19ne22720 0.4 101711
02:00+17e11793 0.0 101711
05:00+16nnw118436 0.0 101711
08:00+21nw22729 0.0 1018168
11:00+26n345316 0.0 1017846
14:00+28n34435 0.0 10172030
17:00+28n444540 0.0 10161742
20:00+23ene34655 0.0 101760
11 august, thu
thu1123:00+18wnw1187100 2.2 101713
02:00+18w11859 0.8 101611
05:00+17wsw228512 1.2 101613
08:00+21ssw23765 0.0 1017197
11:00+26ssw23561 0.0 1016788
14:00+29ssw35435 0.0 10141927
17:00+27ssw3550100 0.0 1013642
20:00+20nw4882100 0.5 1012146
12 august, fri
fri1223:00+17nnw699475 5.7 1013266
02:00+17ssw2396100 1.4 101267
05:00+15w489829 1.5 1012261
08:00+16wnw6890100 0.0 1012565
11:00+16nw788581 0.3 1012697
14:00+18wnw586417 0.1 10121244
17:00+18nw710716 0.7 10111200
20:00+17nw49656 0.1 1012296